Gene Autry, OK

4:47 PM CST on February 24, 2017 (GMT -0600)
Ardmore Municipal

Weather History for KADM - March, 2013

Change the Weather History Date:

Sunday, March 3, 2013

  Actual Average Record
Temperature  
Mean Temperature 44 °F -  
Max Temperature 59 °F 57 °F 75 °F (2011)
Min Temperature 28 °F 38 °F 6 °F (2002)
Degree Days  
Heating Degree Days 22    
Moisture  
Dew Point 30 °F    
Average Humidity 86    
Maximum Humidity 100    
Minimum Humidity 42    
Precipitation  
Precipitation 0.00 in - - ()
Sea Level Pressure  
Sea Level Pressure 30.09 in    
Wind  
Wind Speed 1 mph (SSE)    
Max Wind Speed 12 mph    
Max Gust Speed 20 mph    
Visibility 10 miles    
Events      
Averages and records for this station are not official NWS values.
T = Trace of Precipitation, MM = Missing Value Source: NWS Daily Summary

Daily Weather History Graph

Daily Weather History Graph

Search for Another Location

Airport or City:

Trip Planner

Search our weather history database for the weather conditions in past years. The results will help you decide how hot, cold, wet, or windy it might be!

Date:

Astronomy

Mar. 03, 2013 Rise Set
Actual Time 6:54 AM CST 6:26 PM CST
Civil Twilight 6:28 AM CST 6:51 PM CST
Nautical Twilight 5:59 AM CST 7:20 PM CST
Astronomical Twilight 5:30 AM CST 7:49 PM CST
Moon No Moon Rise 10:27 AM CST (3/3)
Length of Visible Light 12h 22m
Length of Day
11h 32m
Waning Gibbous, 63% of the Moon is Illuminated
Mar 3
Waning Gibbous
Mar 4
Last Quarter
Mar 11
New
Mar 19
First Quarter
Mar 27
Full

Hourly Weather History & Observations

Time (CST) Temp. Dew Point Humidity Pressure Visibility Wind Dir Wind Speed Gust Speed Precip Events Conditions
12:15 AM 30.2 °F 28.4 °F 93% 30.21 in 10.0 mi Calm Calm - N/A   Clear
12:35 AM 30.2 °F 30.2 °F 100% 30.21 in 10.0 mi Calm Calm - N/A   Clear
12:55 AM 30.2 °F 28.4 °F 93% 30.20 in 10.0 mi Calm Calm - N/A   Clear
1:15 AM 30.2 °F 28.4 °F 93% 30.20 in 10.0 mi Calm Calm - N/A   Clear
1:35 AM 30.2 °F 28.4 °F 93% 30.20 in 10.0 mi Calm Calm - N/A   Clear
1:55 AM 30.2 °F 28.4 °F 93% 30.19 in 10.0 mi Calm Calm - N/A   Clear
2:15 AM 28.4 °F 28.4 °F 100% 30.19 in 10.0 mi Calm Calm - N/A   Clear
2:35 AM 28.4 °F 26.6 °F 93% 30.18 in 10.0 mi Calm Calm - N/A   Clear
2:55 AM 28.4 °F 28.4 °F 100% 30.18 in 10.0 mi Calm Calm - N/A   Clear
3:15 AM 30.2 °F 28.4 °F 93% 30.16 in 10.0 mi Calm Calm - N/A   Clear
3:35 AM 28.4 °F 28.4 °F 100% 30.16 in 10.0 mi Calm Calm - N/A   Clear
3:55 AM 28.4 °F 28.4 °F 100% 30.15 in 10.0 mi Calm Calm - N/A   Clear
4:35 AM 28.4 °F 28.4 °F 100% 30.15 in 10.0 mi Calm Calm - N/A   Clear
4:55 AM 28.4 °F 28.4 °F 100% 30.14 in 10.0 mi Calm Calm - N/A   Clear
5:15 AM 28.4 °F 26.6 °F 93% 30.14 in 10.0 mi Calm Calm - N/A   Clear
5:35 AM 28.4 °F 26.6 °F 93% 30.14 in 10.0 mi Calm Calm - N/A   Clear
10:35 PM 59.0 °F 35.6 °F 42% 29.74 in 10.0 mi SSE 11.5 mph - N/A   Scattered Clouds
10:55 PM 57.2 °F 37.4 °F 48% 29.74 in 10.0 mi SSE 9.2 mph - N/A   Scattered Clouds
11:15 PM 57.2 °F 37.4 °F 48% 29.72 in 10.0 mi SSE 10.4 mph 19.6 mph N/A   Scattered Clouds
11:35 PM 59.0 °F 37.4 °F 45% 29.71 in 10.0 mi SSE 11.5 mph 16.1 mph N/A   Scattered Clouds